Regional Weather Roundup
Issued by NWS Jackson, KY

Home | Current Version | Previous Version | Graphics & Text | Print | Product List | Glossary On
Versions: 1 2 3 4 5 6 7 8 9 10 11 12 13 14 15 16 17 18 19 20 21 22 23 24 25 26 27 28 29
000
ASUS43 KJKL 282110
RWRJKL

EAST KENTUCKY HOURLY WEATHER ROUNDUP
NATIONAL WEATHER SERVICE JACKSON KY
500 PM EDT THU APR 28 2016

NOTE: "FAIR" INDICATES FEW OR NO CLOUDS BELOW 12,000 FEET WITH
NO SIGNIFICANT WEATHER AND/OR OBSTRUCTIONS TO VISIBILITY.

* THESE REPORTS ARE NOT UNDER NWS QUALITY CONTROL AND MAY NOT
  REPORT WEATHER SUCH AS PRECIPITATION AND FOG.

KYZ079-080-083-085-087-088-110-112-115-119-120-282200
...EASTERN KENTUCKY...

CITY           SKY/WX    TMP DP  RH WIND       PRES   REMARKS
JACKSON        MOSUNNY   80  54  40 W9G22     29.85F
LONDON         LGT RAIN  72  58  61 W10       29.89R
SOMERSET*      MOSUNNY   73  59  60 W3        29.89S
MONTICELLO*    MOSUNNY   80  59  48 W22       29.89S
WILLIAMSBURG*  PTCLDY    79  54  41 SW7G18    29.88R
MIDDLESBORO*   PTSUNNY   79  58  48 SW5       29.87F
HARLAN APT*      N/A     77  55  47 CALM      29.89F
HAZARD APT*    PTCLDY    81  54  39 SW12G22   29.85F
BLACK MTN*       N/A     64  57  77 S12         N/A
PIKE CO APT*     N/A     79  58  49 SW7       29.85S
BIG SANDY APT* PTCLDY    76  58  53 NW6       29.84S
MOREHEAD APT*  PTCLDY    72  63  73 W7        29.86S
$$

KYZ035-036-041-042-044-050-067-078-099-282200
...CENTRAL KENTUCKY...

CITY           SKY/WX    TMP DP  RH WIND       PRES   REMARKS
MT STERLING*   CLOUDY    72  61  68 N3        29.87R
FLEMING/MASON* MOSUNNY  N/A N/A N/A SW21G26   29.83S
DANVILLE*      PTSUNNY   79  59  50 SW14G23   29.86S
RICHMOND*      CLOUDY    75  57  53 SW15      29.86R
LEXINGTON      MOSUNNY   78  58  49 SW14G28   29.84F
FRANKFORT      PTSUNNY   80  57  45 W12       29.82S
LOUISVILLE     MOSUNNY   80  50  34 W18G29    29.84R
LEBANON*         N/A     79  55  44 SW16      29.85S
BOWLING GREEN  MOSUNNY   80  56  43 W17G25    29.88S
$$

KYZ091>093-OHZ055-061-077-WVZ005-015-034-035-042-282200
...SOUTHERN OHIO/WEST VIRGINIA...

CITY           SKY/WX    TMP DP  RH WIND       PRES   REMARKS
COVINGTON      PTSUNNY   70  62  76 W3        29.82R
COLUMBUS       PTSUNNY   65  55  70 N8        29.83F
DAYTON         CLOUDY    65  58  78 NE6       29.83F
WILMINGTON     SUNNY     71  62  73 NW8       29.81F
HUNTINGTON       N/A     76  57  51 W6        29.81R
CHARLESTON     PTSUNNY   75  62  64 SW6       29.83R THUNDER
PINEVILLE*       N/A     79  52  39 MISG      29.91S
BECKLEY        PTSUNNY   73  53  49 W15       29.89R
$$

VAZ002-007-008-TNZ017-027-036-066-071-282200
...SOUTHWEST VIRGINIA/EAST TENNESSEE...

CITY           SKY/WX    TMP DP  RH WIND       PRES   REMARKS
WISE*            N/A     73  46  38 SW13      29.93S
BRISTOL        MOSUNNY   80  54  40 SW13      29.88F
MORRISTOWN*    CLEAR     81  55  41 W13G18    29.89F
SEVIERVILLE*   CLEAR     82  50  32 W12       29.88F
KNOXVILLE      MOSUNNY   83  54  36 SW16      29.89F
OAK RIDGE      SUNNY     83  55  38 VRB7      29.89F
CROSSVILLE     SUNNY     78  56  46 W16G26    29.95S
NASHVILLE      PTSUNNY   83  53  35 W10G18    29.89F
$$

...KEY TO REMARKS...
VSB - VISIBILITY IN MILES
WCI - WIND CHILL INDEX
HX  - HEAT INDEX

$$




USA.gov is the U.S. government's official web portal to all federal, state and local government web resources and services.